User: anonymous   Login
Location: Unspecified
(0.0000°N, 0.0000°E)
Time: 23:49:18
(UTC+00:00)
Language:

STUDSAT - Orbit

View from above orbital plane
View from above orbital plane
View from above satellite
View from above satellite

Ground track
Ground track

The orbit data is extracted from the following two-line orbital elements,

1 36796U 10035B   17348.88163899 +.00000355 +00000-0 +45672-4 0  9996
2 36796 098.0447 104.1675 0014141 108.5943 251.6809 14.87283673402095
Epoch (UTC): 14 December 2017 21:09:33
Eccentricity: 0.0014141
inclination: 98.0447°
perigee height: 596 km
apogee height: 616 km
right ascension of ascending node: 104.1675°
argument of perigee: 108.5943°
revolutions per day: 14.87283673
mean anomaly at epoch: 251.6809°
orbit number at epoch: 40209

The dashed part of the orbit path shows where the satellite is in the earth's shadow,  

DLR